Weather History for Newton, IA

Change the Weather History Date:

Wednesday, March 19, 2014

  Actual Average Record
Temperature  
Mean Temperature 34 °F -  
Max Temperature 39 °F 48 °F 82 °F (2012)
Min Temperature 30 °F 29 °F 10 °F (1993)
Degree Days  
Heating Degree Days 30    
Moisture  
Dew Point 30 °F    
Average Humidity 82    
Maximum Humidity 100    
Minimum Humidity 61    
Precipitation  
Precipitation 0.00 in - - ()
Sea Level Pressure  
Sea Level Pressure 29.90 in    
Wind  
Wind Speed 15 mph (NW)    
Max Wind Speed 25 mph    
Max Gust Speed 38 mph    
Visibility 8 miles    
Events Snow    
Averages and records for this station are not official NWS values.
T = Trace of Precipitation, MM = Missing Value Source: NWS Daily Summary

Daily Weather History Graph

Daily Weather History Graph

Search for Another Location

Airport:

Trip Planner

Search our weather history database for the weather conditions in past years. The results will help you decide how hot, cold, wet, or windy it might be!

Date:

Astronomy

Mar. 19, 2014 Rise Set
Actual Time 7:17 AM CDT 7:23 PM CDT
Civil Twilight 6:49 AM CDT 7:50 PM CDT
Nautical Twilight 6:17 AM CDT 8:23 PM CDT
Astronomical Twilight 5:44 AM CDT 8:56 PM CDT
Moon 10:45 PM CDT (3/19) 8:40 AM CDT (3/19)
Length of Visible Light 13h 01m
Length of Day
12h 06m
Waning Gibbous, 91% of the Moon is Illuminated
Mar 19
Waning Gibbous
Mar 23
Last Quarter
Mar 30
New
Apr 7
First Quarter
Apr 15
Full

Hourly Weather History & Observations

Time (CDT) Temp. Windchill Dew Point Humidity Pressure Visibility Wind Dir Wind Speed Gust Speed Precip Events Conditions
12:15 AM 39.2 °F 31.6 °F 39.2 °F 100% 29.60 in 3.0 mi North 12.7 mph - N/A   Overcast
12:35 AM 39.2 °F 32.5 °F 39.2 °F 100% 29.61 in 3.0 mi North 10.4 mph - N/A   Overcast
12:55 AM 39.2 °F 32.0 °F 39.2 °F 100% 29.61 in 3.0 mi North 11.5 mph - N/A   Overcast
1:15 AM 39.2 °F 31.6 °F 39.2 °F 100% 29.61 in - NW 12.7 mph - N/A   Overcast
1:35 AM 39.2 °F 32.0 °F 39.2 °F 100% 29.62 in 3.0 mi NNW 11.5 mph - N/A   Overcast
1:55 AM 39.2 °F 32.0 °F 39.2 °F 100% 29.63 in 2.5 mi NNW 11.5 mph 18.4 mph N/A   Overcast
2:15 AM 37.4 °F 27.8 °F 37.4 °F 100% 29.63 in 2.0 mi NNW 17.3 mph - N/A   Overcast
2:35 AM 37.4 °F 27.8 °F 37.4 °F 100% 29.64 in 2.5 mi NNW 17.3 mph - N/A   Overcast
2:55 AM 37.4 °F 27.2 °F 37.4 °F 100% 29.64 in 4.0 mi NNW 19.6 mph - N/A   Overcast
3:15 AM 37.4 °F 27.8 °F 35.6 °F 93% 29.65 in 4.0 mi NNW 17.3 mph - N/A   Overcast
3:35 AM 35.6 °F 25.2 °F 35.6 °F 100% 29.66 in 5.0 mi NW 18.4 mph 25.3 mph N/A   Overcast
3:55 AM 35.6 °F 24.8 °F 35.6 °F 100% 29.66 in 5.0 mi NNW 19.6 mph - N/A   Overcast
4:15 AM 35.6 °F 24.8 °F 33.8 °F 93% 29.67 in 4.0 mi NNW 19.6 mph 27.6 mph N/A   Overcast
4:35 AM 33.8 °F 22.5 °F 33.8 °F 100% 29.68 in 4.0 mi NNW 19.6 mph 25.3 mph N/A   Overcast
4:55 AM 33.8 °F 22.5 °F 33.8 °F 100% 29.71 in 4.0 mi NW 19.6 mph 27.6 mph N/A   Overcast
5:15 AM 33.8 °F 22.2 °F 33.8 °F 100% 29.72 in 3.0 mi NNW 20.7 mph - N/A   Overcast
5:35 AM 33.8 °F 23.2 °F 32.0 °F 93% 29.75 in 2.5 mi NW 17.3 mph 27.6 mph N/A Snow Light Snow
5:55 AM 32.0 °F 19.8 °F 32.0 °F 100% 29.76 in 3.0 mi NW 20.7 mph - N/A Snow Light Snow
6:15 AM 32.0 °F 19.8 °F 30.2 °F 93% 29.78 in 6.0 mi NW 20.7 mph 27.6 mph N/A Snow Light Snow
6:35 AM 32.0 °F 20.5 °F 30.2 °F 93% 29.79 in 10.0 mi NW 18.4 mph 25.3 mph N/A   Overcast
6:55 AM 32.0 °F 18.9 °F 30.2 °F 93% 29.80 in 8.0 mi NW 24.2 mph - N/A   Overcast
7:15 AM 32.0 °F 18.9 °F 30.2 °F 93% 29.82 in 9.0 mi NW 24.2 mph 33.4 mph N/A   Overcast
7:35 AM 32.0 °F 20.5 °F 30.2 °F 93% 29.83 in 6.0 mi NW 18.4 mph 27.6 mph N/A   Overcast
7:55 AM 32.0 °F 19.5 °F 28.4 °F 87% 29.85 in 5.0 mi NW 21.9 mph 35.7 mph N/A   Overcast
8:15 AM 32.0 °F 20.1 °F 28.4 °F 87% 29.86 in 6.0 mi NW 19.6 mph 31.1 mph N/A   Overcast
8:35 AM 32.0 °F 20.1 °F 28.4 °F 87% 29.87 in 7.0 mi NW 19.6 mph 29.9 mph N/A   Overcast
8:55 AM 32.0 °F 20.1 °F 28.4 °F 87% 29.87 in 7.0 mi NW 19.6 mph 27.6 mph N/A   Overcast
9:15 AM 32.0 °F 19.2 °F 28.4 °F 87% 29.89 in 9.0 mi NNW 23.0 mph 31.1 mph N/A   Overcast
9:35 AM 32.0 °F 19.8 °F 28.4 °F 87% 29.91 in 9.0 mi NW 20.7 mph 31.1 mph N/A   Overcast
9:55 AM 32.0 °F 18.9 °F 28.4 °F 87% 29.92 in 9.0 mi NNW 24.2 mph 34.5 mph N/A   Overcast
10:15 AM 33.8 °F 21.0 °F 26.6 °F 75% 29.93 in 9.0 mi NNW 25.3 mph 38.0 mph N/A   Overcast
10:35 AM 33.8 °F 22.5 °F 28.4 °F 81% 29.94 in 9.0 mi NW 19.6 mph 31.1 mph N/A   Overcast
10:55 AM 33.8 °F 21.6 °F 26.6 °F 75% 29.95 in 10.0 mi NW 23.0 mph 31.1 mph N/A   Overcast
11:15 AM 33.8 °F 23.5 °F 28.4 °F 81% 29.97 in 10.0 mi NNW 16.1 mph 26.5 mph N/A   Overcast
11:35 AM 33.8 °F 22.2 °F 28.4 °F 81% 29.97 in 10.0 mi NW 20.7 mph 26.5 mph N/A   Overcast
11:55 AM 33.8 °F 23.2 °F 28.4 °F 81% 29.98 in 10.0 mi NW 17.3 mph 28.8 mph N/A   Overcast
12:15 PM 33.8 °F 24.8 °F 28.4 °F 81% 29.99 in 10.0 mi NW 12.7 mph 20.7 mph N/A   Overcast
12:35 PM 33.8 °F 23.9 °F 26.6 °F 75% 29.99 in 10.0 mi NW 15.0 mph 21.9 mph N/A   Overcast
12:55 PM 35.6 °F 24.5 °F 26.6 °F 70% 30.00 in 10.0 mi NW 20.7 mph 26.5 mph N/A   Overcast
1:15 PM 35.6 °F 24.5 °F 26.6 °F 70% 30.01 in 10.0 mi NW 20.7 mph 27.6 mph N/A   Overcast
1:35 PM 35.6 °F 26.2 °F 24.8 °F 65% 30.01 in 10.0 mi NW 15.0 mph 28.8 mph N/A   Overcast
1:55 PM 35.6 °F 25.2 °F 26.6 °F 70% 30.01 in 10.0 mi NW 18.4 mph 26.5 mph N/A   Overcast
2:15 PM 35.6 °F 25.2 °F 26.6 °F 70% 30.01 in 10.0 mi NW 18.4 mph 26.5 mph N/A   Overcast
2:35 PM 35.6 °F 25.9 °F 26.6 °F 70% 30.02 in 10.0 mi NW 16.1 mph - N/A   Overcast
2:55 PM 37.4 °F 27.8 °F 26.6 °F 65% 30.02 in 10.0 mi WNW 17.3 mph 25.3 mph N/A   Overcast
3:15 PM 37.4 °F 28.2 °F 26.6 °F 65% 30.02 in - West 16.1 mph 24.2 mph N/A   Overcast
3:35 PM 37.4 °F 28.5 °F 26.6 °F 65% 30.02 in 10.0 mi WNW 15.0 mph 25.3 mph N/A   Overcast
3:55 PM 37.4 °F 27.8 °F 26.6 °F 65% 30.03 in 10.0 mi WNW 17.3 mph - N/A   Overcast
4:15 PM 37.4 °F 28.5 °F 26.6 °F 65% 30.03 in 10.0 mi WNW 15.0 mph 20.7 mph N/A   Overcast
4:35 PM 37.4 °F 28.5 °F 26.6 °F 65% 30.03 in 10.0 mi NW 15.0 mph 21.9 mph N/A   Overcast
4:55 PM 39.2 °F 31.6 °F 26.6 °F 61% 30.03 in 10.0 mi WNW 12.7 mph 23.0 mph N/A   Overcast
5:15 PM 39.2 °F 31.6 °F 26.6 °F 61% 30.04 in 10.0 mi WNW 12.7 mph 23.0 mph N/A   Overcast
5:35 PM 39.2 °F 30.2 °F 28.4 °F 65% 30.04 in 10.0 mi West 17.3 mph 26.5 mph N/A   Overcast
5:55 PM 39.2 °F 31.2 °F 26.6 °F 61% 30.04 in 10.0 mi WNW 13.8 mph 21.9 mph N/A   Overcast
6:15 PM 39.2 °F 31.2 °F 26.6 °F 61% 30.05 in 10.0 mi WNW 13.8 mph - N/A   Overcast
6:35 PM 39.2 °F 31.6 °F 28.4 °F 65% 30.05 in 10.0 mi WNW 12.7 mph - N/A   Mostly Cloudy
6:55 PM 39.2 °F 32.5 °F 28.4 °F 65% 30.05 in 10.0 mi WNW 10.4 mph - N/A   Clear
7:15 PM 37.4 °F 32.1 °F 28.4 °F 70% 30.05 in 10.0 mi West 6.9 mph - N/A   Clear
7:35 PM 35.6 °F 30.7 °F 28.4 °F 75% 30.04 in 10.0 mi West 5.8 mph - N/A   Clear
7:55 PM 35.6 °F 30.7 °F 28.4 °F 75% 30.05 in 10.0 mi West 5.8 mph - N/A   Clear
8:15 PM 35.6 °F 30.7 °F 28.4 °F 75% 30.04 in 10.0 mi SW 5.8 mph - N/A   Clear
8:35 PM 33.8 °F 27.7 °F 28.4 °F 81% 30.04 in 10.0 mi SW 6.9 mph - N/A   Clear
8:55 PM 33.8 °F 27.0 °F 28.4 °F 81% 30.04 in 10.0 mi SW 8.1 mph - N/A   Clear
9:15 PM 33.8 °F 27.0 °F 28.4 °F 81% 30.04 in 10.0 mi SW 8.1 mph - N/A   Clear
9:35 PM 33.8 °F 27.0 °F 28.4 °F 81% 30.05 in 10.0 mi SW 8.1 mph - N/A   Clear
9:55 PM 33.8 °F 27.7 °F 28.4 °F 81% 30.04 in 10.0 mi SW 6.9 mph - N/A   Clear
10:15 PM 33.8 °F 27.7 °F 28.4 °F 81% 30.04 in 10.0 mi SW 6.9 mph - N/A   Partly Cloudy
10:35 PM 32.0 °F 26.4 °F 28.4 °F 87% 30.04 in 10.0 mi SSW 5.8 mph - N/A   Mostly Cloudy
10:55 PM 30.2 °F 23.4 °F 26.6 °F 86% 30.04 in 10.0 mi SSW 6.9 mph - N/A   Mostly Cloudy
11:15 PM 30.2 °F 25.4 °F 26.6 °F 86% 30.03 in 10.0 mi SSW 4.6 mph - N/A   Mostly Cloudy
11:35 PM 32.0 °F 26.4 °F 26.6 °F 80% 30.03 in 10.0 mi SSW 5.8 mph - N/A   Overcast
11:55 PM 32.0 °F 26.4 °F 26.6 °F 80% 30.03 in - SW 5.8 mph - N/A   Mostly Cloudy